Zurück zum Katalog

STARLINK-35978

AktivKommunikationVLEO
NORAD 66601·PAYLOAD·🇺🇸 United States

Gestartet Nov 22, 2025 von Cape Canaveral Space Force Station

Loading…

Nächste Überflüge (nächste 24 Stunden)

TLE

AktuellSource: CelesTrak SupGP

Epoche: Sep 14, 2026, 15:12 UTC

1 66601C 25270P   26257.63381944 -.00055482  00000+0 -20093-2 0  2573
2 66601  43.0000  69.0689 0001389 268.9623  71.6831 15.27611092    14

Verfolge STARLINK-35978 in Echtzeit mit AllMySat

Download on the App Store